Conquistador — WDE8212 — position and weather

sailwx.info

Track history (hours):
 
Tides and Currents Weather Stations Pressure Air Temp Water Temp Dewpoint Dewpoint Depression Visibility Wind Speed Wind Dir Waves Ship Positions

Conquistador

More information available from US FCC via Universal Licensing System and Coast Guard Vessel Documentation Center.

Last reported at 2014-Sep-01 11:22 UTC. Time now 2014-Sep-01 18:57 UTC.
Position N 33°21' W 118°19'.

Length 22 m.

Type: Pleasure craft. MMSI: 367402860.

Date/timePositionNaut miles runAvg speedWind from/ knotsBaromVisibWave heightAir tempDewpointWater temp
2014-Sep-01 11:22N 33°21' W 118°19'0 0.0
2014-Sep-01 09:16N 33°21' W 118°19'0 0.0
2014-Sep-01 07:28N 33°21' W 118°19'0 0.0
2014-Sep-01 06:28N 33°21' W 118°19'0 0.0
2014-Sep-01 05:10N 33°21' W 118°19'0 0.0
2014-Sep-01 01:19N 33°21' W 118°19'2 1.7
2014-Sep-01 00:13N 33°23' W 118°20'2 0.2
2014-Aug-31 16:24N 33°21' W 118°19'0 0.0
2014-Aug-31 12:33N 33°21' W 118°19'0 0.0
2014-Aug-31 11:30N 33°21' W 118°19'0 0.0
2014-Aug-31 10:30N 33°21' W 118°19'0 0.0
2014-Aug-31 09:30N 33°21' W 118°19'0 0.0
2014-Aug-31 08:33N 33°21' W 118°19'0 0.0
2014-Aug-31 07:27N 33°21' W 118°19'0 0.0
2014-Aug-31 06:24N 33°21' W 118°19'0 0.0
2014-Aug-31 05:33N 33°21' W 118°19'0 0.0
2014-Aug-31 04:30N 33°21' W 118°19'0 0.0
2014-Aug-31 02:09N 33°21' W 118°19'0 0.0
2014-Aug-31 00:33N 33°21' W 118°19'0 0.0
2014-Aug-30 23:27N 33°21' W 118°19'0 0.0
2014-Aug-30 22:33N 33°21' W 118°19'0 0.0
2014-Aug-30 21:33N 33°21' W 118°19'0 0.0
2014-Aug-30 20:30N 33°21' W 118°19'0 0.0
2014-Aug-30 19:33N 33°21' W 118°19'0 0.0
2014-Aug-30 18:33N 33°21' W 118°19'0 0.0
2014-Aug-30 17:30N 33°21' W 118°19'0 0.0
2014-Aug-30 16:33N 33°21' W 118°19'0 0.0
2014-Aug-30 15:24N 33°21' W 118°19'0 0.0
2014-Aug-30 14:30N 33°21' W 118°19'0 0.0
2014-Aug-30 13:33N 33°21' W 118°19'0 0.0
2014-Aug-30 12:12N 33°21' W 118°19'0 0.0
2014-Aug-30 11:24N 33°21' W 118°19'0 0.0
2014-Aug-30 10:33N 33°21' W 118°19'0 0.0
2014-Aug-30 09:33N 33°21' W 118°19'0 0.0
2014-Aug-30 08:33N 33°21' W 118°19'0 0.0
2014-Aug-30 07:30N 33°21' W 118°19'0 0.0
2014-Aug-30 06:33N 33°21' W 118°19'0 0.0
2014-Aug-30 05:33N 33°21' W 118°19'0 0.0
2014-Aug-30 04:12N 33°21' W 118°19'0 0.0
2014-Aug-30 03:18N 33°21' W 118°19'0 0.0
2014-Aug-30 02:09N 33°21' W 118°19'0 0.0
2014-Aug-30 01:33N 33°21' W 118°19'0 0.0
2014-Aug-30 00:27N 33°21' W 118°19'0 0.0
2014-Aug-29 23:33N 33°21' W 118°19'0 0.0
2014-Aug-29 22:30N 33°21' W 118°19'0 0.0
2014-Aug-29 21:33N 33°21' W 118°19'0 0.0
2014-Aug-29 20:27N 33°21' W 118°19'0 0.0
2014-Aug-29 19:33N 33°21' W 118°19'0 0.0
2014-Aug-29 17:27N 33°21' W 118°19'0 0.3
2014-Aug-29 16:31N 33°21' W 118°19'0 0.1
2014-Aug-29 14:32N 33°21' W 118°19'0 0.0
2014-Aug-29 12:26N 33°21' W 118°19'0 0.0
2014-Aug-29 10:17N 33°21' W 118°19'0 0.0
2014-Aug-29 09:32N 33°21' W 118°19'0 0.0
2014-Aug-29 08:32N 33°21' W 118°19'0 0.0
2014-Aug-29 07:32N 33°21' W 118°19'0 0.0
2014-Aug-29 00:31N 33°21' W 118°19'0 0.0
2014-Aug-28 22:12N 33°21' W 118°19'1 0.5
2014-Aug-28 19:22N 33°22' W 118°18'2310.3
2014-Aug-28 17:05N 33°34' W 117°54'3 0.2
2014-Aug-28 03:30N 33°37' W 117°56'29 1.0
2014-Aug-26 22:24N 33°12' W 117°38'8 9.7
2014-Aug-26 21:33N 33°05' W 117°33'1010.5
2014-Aug-26 20:33N 32°56' W 117°27'8 8.2
2014-Aug-26 19:33N 32°48' W 117°23'10 3.2
2014-Aug-26 16:30N 32°44' W 117°12'0 0.0
2014-Aug-26 10:12N 32°44' W 117°12'0 0.0
2014-Aug-26 09:18N 32°44' W 117°12'0 0.0
2014-Aug-26 08:18N 32°44' W 117°12'0 0.0
2014-Aug-26 05:30N 32°44' W 117°12'0 0.0
2014-Aug-26 04:24N 32°44' W 117°12'0 0.0
2014-Aug-24 18:06N 32°44' W 117°12'0 0.0
2014-Aug-24 16:30N 32°44' W 117°12'0 0.0
2014-Aug-24 09:24N 32°44' W 117°12'0 0.0
2014-Aug-24 07:06N 32°44' W 117°12'0 0.0
2014-Aug-24 06:30N 32°44' W 117°12'0 0.0
2014-Aug-24 05:24N 32°44' W 117°12'0 0.0
2014-Aug-24 04:30N 32°44' W 117°12'0 0.0
2014-Aug-23 19:24N 32°44' W 117°12'0 0.0
2014-Aug-22 20:30N 32°44' W 117°12'0 0.0
2014-Aug-22 19:30N 32°44' W 117°12'  
Track history (hours):
 
Tides and Currents Weather Stations Pressure Air Temp Water Temp Dewpoint Dewpoint Depression Visibility Wind Speed Wind Dir Waves Ship Positions

Conquistador

More information available from US FCC via Universal Licensing System and Coast Guard Vessel Documentation Center.

Last reported at 2014-Sep-01 11:22 UTC. Time now 2014-Sep-01 18:57 UTC.
Position N 33°21' W 118°19'.

Length 22 m.

Type: Pleasure craft. MMSI: 367402860.

Date/timePositionNaut miles runAvg speedWind from/ knotsBaromVisibWave heightAir tempDewpointWater temp
2014-Sep-01 11:22N 33°21' W 118°19'0 0.0
2014-Sep-01 09:16N 33°21' W 118°19'0 0.0
2014-Sep-01 07:28N 33°21' W 118°19'0 0.0
2014-Sep-01 06:28N 33°21' W 118°19'0 0.0
2014-Sep-01 05:10N 33°21' W 118°19'0 0.0
2014-Sep-01 01:19N 33°21' W 118°19'2 1.7
2014-Sep-01 00:13N 33°23' W 118°20'2 0.2
2014-Aug-31 16:24N 33°21' W 118°19'0 0.0
2014-Aug-31 12:33N 33°21' W 118°19'0 0.0
2014-Aug-31 11:30N 33°21' W 118°19'0 0.0
2014-Aug-31 10:30N 33°21' W 118°19'0 0.0
2014-Aug-31 09:30N 33°21' W 118°19'0 0.0
2014-Aug-31 08:33N 33°21' W 118°19'0 0.0
2014-Aug-31 07:27N 33°21' W 118°19'0 0.0
2014-Aug-31 06:24N 33°21' W 118°19'0 0.0
2014-Aug-31 05:33N 33°21' W 118°19'0 0.0
2014-Aug-31 04:30N 33°21' W 118°19'0 0.0
2014-Aug-31 02:09N 33°21' W 118°19'0 0.0
2014-Aug-31 00:33N 33°21' W 118°19'0 0.0
2014-Aug-30 23:27N 33°21' W 118°19'0 0.0
2014-Aug-30 22:33N 33°21' W 118°19'0 0.0
2014-Aug-30 21:33N 33°21' W 118°19'0 0.0
2014-Aug-30 20:30N 33°21' W 118°19'0 0.0
2014-Aug-30 19:33N 33°21' W 118°19'0 0.0
2014-Aug-30 18:33N 33°21' W 118°19'0 0.0
2014-Aug-30 17:30N 33°21' W 118°19'0 0.0
2014-Aug-30 16:33N 33°21' W 118°19'0 0.0
2014-Aug-30 15:24N 33°21' W 118°19'0 0.0
2014-Aug-30 14:30N 33°21' W 118°19'0 0.0
2014-Aug-30 13:33N 33°21' W 118°19'0 0.0
2014-Aug-30 12:12N 33°21' W 118°19'0 0.0
2014-Aug-30 11:24N 33°21' W 118°19'0 0.0
2014-Aug-30 10:33N 33°21' W 118°19'0 0.0
2014-Aug-30 09:33N 33°21' W 118°19'0 0.0
2014-Aug-30 08:33N 33°21' W 118°19'0 0.0
2014-Aug-30 07:30N 33°21' W 118°19'0 0.0
2014-Aug-30 06:33N 33°21' W 118°19'0 0.0
2014-Aug-30 05:33N 33°21' W 118°19'0 0.0
2014-Aug-30 04:12N 33°21' W 118°19'0 0.0
2014-Aug-30 03:18N 33°21' W 118°19'0 0.0
2014-Aug-30 02:09N 33°21' W 118°19'0 0.0
2014-Aug-30 01:33N 33°21' W 118°19'0 0.0
2014-Aug-30 00:27N 33°21' W 118°19'0 0.0
2014-Aug-29 23:33N 33°21' W 118°19'0 0.0
2014-Aug-29 22:30N 33°21' W 118°19'0 0.0
2014-Aug-29 21:33N 33°21' W 118°19'0 0.0
2014-Aug-29 20:27N 33°21' W 118°19'0 0.0
2014-Aug-29 19:33N 33°21' W 118°19'0 0.0
2014-Aug-29 17:27N 33°21' W 118°19'0 0.3
2014-Aug-29 16:31N 33°21' W 118°19'0 0.1
2014-Aug-29 14:32N 33°21' W 118°19'0 0.0
2014-Aug-29 12:26N 33°21' W 118°19'0 0.0
2014-Aug-29 10:17N 33°21' W 118°19'0 0.0
2014-Aug-29 09:32N 33°21' W 118°19'0 0.0
2014-Aug-29 08:32N 33°21' W 118°19'0 0.0
2014-Aug-29 07:32N 33°21' W 118°19'0 0.0
2014-Aug-29 00:31N 33°21' W 118°19'0 0.0
2014-Aug-28 22:12N 33°21' W 118°19'1 0.5
2014-Aug-28 19:22N 33°22' W 118°18'2310.3
2014-Aug-28 17:05N 33°34' W 117°54'3 0.2
2014-Aug-28 03:30N 33°37' W 117°56'29 1.0
2014-Aug-26 22:24N 33°12' W 117°38'8 9.7
2014-Aug-26 21:33N 33°05' W 117°33'1010.5
2014-Aug-26 20:33N 32°56' W 117°27'8 8.2
2014-Aug-26 19:33N 32°48' W 117°23'10 3.2
2014-Aug-26 16:30N 32°44' W 117°12'0 0.0
2014-Aug-26 10:12N 32°44' W 117°12'0 0.0
2014-Aug-26 09:18N 32°44' W 117°12'0 0.0
2014-Aug-26 08:18N 32°44' W 117°12'0 0.0
2014-Aug-26 05:30N 32°44' W 117°12'0 0.0
2014-Aug-26 04:24N 32°44' W 117°12'0 0.0
2014-Aug-24 18:06N 32°44' W 117°12'0 0.0
2014-Aug-24 16:30N 32°44' W 117°12'0 0.0
2014-Aug-24 09:24N 32°44' W 117°12'0 0.0
2014-Aug-24 07:06N 32°44' W 117°12'0 0.0
2014-Aug-24 06:30N 32°44' W 117°12'0 0.0
2014-Aug-24 05:24N 32°44' W 117°12'0 0.0
2014-Aug-24 04:30N 32°44' W 117°12'0 0.0
2014-Aug-23 19:24N 32°44' W 117°12'0 0.0
2014-Aug-22 20:30N 32°44' W 117°12'0 0.0
2014-Aug-22 19:30N 32°44' W 117°12'  

Dump ship's entire track history